Date String (YYYY-MM-DD hh:mm:ss) UTC,Instrument flags,Ambient pressure (hPa),Sample flow (lpm),Bypass flow (lpm),Sample temperature (°C),Ambient temperature (°C),ASC tube jacket temperature (°C),LED temperature (°C),Box temperature (°C),Sample RH (%),Span deviation,Mass concentration (μg/m³),Mass concentration (μg/m³),Mass concentration (μg/m³)
DateTimeUTC,F1_M11,P_M11,Q1_M11,Q2_M11,T1_M11,T2_M11,T3_M11,T4_M11,T5_M11,U1_M11,ZSPAN_M11,X0_M11,X2_M11,X1_M11
2021-08-27 20:00:00,,0824.8,5.00,0.00,28.8,27.3,00.0,37.9,30.7,20.8,0000.8,0013.72,0004.98,0004.28
2021-08-27 20:01:00,,0824.8,4.99,0.00,28.9,27.7,00.0,37.9,30.8,20.7,0000.8,0013.53,0004.97,0004.27
2021-08-27 20:02:00,,0824.8,4.99,0.00,29.0,28.0,00.0,37.9,30.9,20.6,0000.7,0013.56,0004.96,0004.27
2021-08-27 20:03:00,,0824.8,5.01,0.00,29.0,28.0,00.0,37.9,30.9,20.4,0001.1,0013.44,0004.94,0004.28
2021-08-27 20:04:00,,0824.7,4.99,0.00,29.0,26.5,00.0,37.9,30.5,20.6,0001.0,0013.11,0004.99,0004.29
2021-08-27 20:05:00,,0824.7,5.01,0.00,28.8,25.6,00.0,37.9,30.3,21.2,0000.9,0012.34,0004.97,0004.28
2021-08-27 20:06:00,,0824.7,4.99,0.00,28.8,26.0,00.0,37.9,30.3,20.8,0000.7,0011.36,0004.97,0004.26
2021-08-27 20:07:00,,0824.8,5.00,0.00,28.8,26.4,00.0,37.9,30.5,20.6,0000.6,0011.17,0004.93,0004.27
2021-08-27 20:08:00,,0824.8,5.00,0.00,28.8,26.8,00.0,37.9,30.6,20.5,0001.0,0010.99,0004.89,0004.26
2021-08-27 20:09:00,,0824.6,5.00,0.00,28.8,27.2,00.0,37.9,30.7,21.1,0000.7,0010.96,0004.85,0004.27
2021-08-27 20:10:00,,0824.7,5.00,0.00,28.9,27.5,00.0,37.9,30.8,20.6,0000.7,0010.89,0004.80,0004.26
2021-08-27 20:11:00,,0824.7,5.01,0.00,29.0,27.9,00.0,37.9,30.9,20.4,0000.4,0010.70,0004.81,0004.26
2021-08-27 20:12:00,,0824.7,5.00,0.00,29.0,27.3,00.0,37.9,30.7,21.4,0000.5,0011.12,0004.82,0004.28
2021-08-27 20:13:00,,0824.7,4.99,0.00,28.9,25.9,00.0,37.9,30.4,21.2,0000.5,0011.23,0004.84,0004.28
2021-08-27 20:14:00,,0824.7,5.00,0.00,28.8,25.8,00.0,37.9,30.3,20.5,0000.3,0011.24,0004.84,0004.27
2021-08-27 20:15:00,,0824.6,5.00,0.00,28.8,26.2,00.0,37.9,30.4,20.8,0000.6,0011.04,0004.80,0004.27
2021-08-27 20:16:00,,0824.7,5.00,0.00,28.7,26.6,00.0,37.8,30.5,20.7,0001.1,0011.76,0004.83,0004.29
2021-08-27 20:17:00,,0824.7,5.02,0.00,28.8,27.1,00.0,37.8,30.6,20.3,0001.4,0011.70,0004.83,0004.30
2021-08-27 20:18:00,,0824.7,5.00,0.00,28.8,27.5,00.0,37.8,30.7,20.8,0001.8,0012.57,0004.84,0004.29
2021-08-27 20:19:00,,0824.7,4.99,0.00,28.9,27.8,00.0,37.8,30.8,20.8,0001.9,0013.16,0004.88,0004.29
2021-08-27 20:20:00,,0824.7,4.99,0.00,29.0,28.1,00.0,37.9,30.9,20.1,0002.5,0012.99,0004.90,0004.30
2021-08-27 20:21:00,,0824.8,5.00,0.00,29.0,27.5,00.0,37.9,30.8,20.2,0002.7,0013.70,0004.96,0004.32
2021-08-27 20:22:00,,0824.7,5.00,0.00,28.9,25.9,00.0,37.9,30.3,20.4,0002.5,0013.68,0005.01,0004.34
2021-08-27 20:23:00,,0824.6,4.99,0.00,28.8,25.7,00.0,37.9,30.2,20.6,0002.7,0012.72,0004.99,0004.34
2021-08-27 20:24:00,,0824.7,5.00,0.00,28.7,26.1,00.0,37.9,30.4,20.7,0003.0,0013.80,0004.96,0004.34
2021-08-27 20:25:00,,0824.6,5.00,0.00,28.7,26.6,00.0,37.8,30.5,20.8,0003.1,0014.63,0005.02,0004.37
2021-08-27 20:26:00,,0824.6,5.00,0.00,28.8,27.0,00.0,37.8,30.6,20.9,0002.9,0014.78,0005.04,0004.38
2021-08-27 20:27:00,,0824.6,5.00,0.00,28.8,27.4,00.0,37.8,30.7,20.8,0002.6,0014.18,0005.06,0004.38
2021-08-27 20:28:00,,0824.7,4.99,0.00,28.9,27.7,00.0,37.8,30.8,20.3,0002.3,0013.77,0005.06,0004.39
2021-08-27 20:29:00,,0824.6,5.00,0.00,29.0,28.0,00.0,37.9,30.9,20.6,0002.2,0013.82,0005.05,0004.39
2021-08-27 20:30:00,,0824.6,5.01,0.00,29.0,28.3,00.0,37.9,31.0,21.0,0002.3,0013.53,0005.04,0004.40
2021-08-27 20:31:00,,0824.6,5.00,0.00,29.1,27.9,00.0,37.9,30.9,21.0,0002.1,0014.22,0005.03,0004.40
2021-08-27 20:32:00,,0824.6,5.00,0.00,29.0,26.3,00.0,37.9,30.5,20.3,0002.0,0014.01,0005.02,0004.41
2021-08-27 20:33:00,,0824.6,4.99,0.00,28.9,25.7,00.0,37.9,30.3,20.5,0002.3,0013.57,0004.99,0004.41
2021-08-27 20:34:00,,0824.6,5.00,0.00,28.8,26.1,00.0,37.9,30.4,20.7,0002.1,0013.56,0004.99,0004.40
2021-08-27 20:35:00,,0824.6,5.01,0.00,28.8,26.6,00.0,37.9,30.5,20.4,0002.1,0012.54,0004.99,0004.40
2021-08-27 20:36:00,,0824.7,4.99,0.00,28.8,27.0,00.0,37.9,30.6,20.2,0002.1,0011.67,0004.98,0004.40
2021-08-27 20:37:00,,0824.8,5.00,0.00,28.9,27.4,00.0,37.9,30.8,20.4,0002.2,0011.59,0004.97,0004.40
2021-08-27 20:38:00,,0824.7,5.00,0.00,29.0,27.7,00.0,37.9,30.9,20.2,0002.7,0011.48,0004.95,0004.39
2021-08-27 20:39:00,,0824.4,5.00,0.00,29.0,28.0,00.0,37.9,31.0,20.3,0002.8,0011.43,0004.94,0004.39
2021-08-27 20:40:00,,0824.4,5.00,0.00,29.1,28.2,00.0,38.0,31.0,20.1,0002.7,0011.03,0004.96,0004.39
2021-08-27 20:41:00,,0824.7,5.00,0.00,29.1,27.2,00.0,38.0,30.8,20.3,0002.6,0010.93,0004.94,0004.38
2021-08-27 20:42:00,,0824.5,5.01,0.00,28.9,25.8,00.0,38.0,30.4,20.4,0002.4,0010.31,0004.92,0004.37
2021-08-27 20:43:00,,0824.4,5.00,0.00,28.9,25.9,00.0,37.9,30.4,20.5,0002.1,0010.16,0004.94,0004.37
2021-08-27 20:44:00,,0824.5,4.99,0.00,28.8,26.3,00.0,37.9,30.5,19.9,0002.2,0010.07,0004.92,0004.37
2021-08-27 20:45:00,,0824.5,5.00,0.00,28.8,26.8,00.0,37.9,30.6,19.8,0002.6,0010.59,0004.92,0004.36
2021-08-27 20:46:00,,0824.5,5.00,0.00,28.9,27.2,00.0,37.9,30.7,20.1,0002.3,0010.54,0004.89,0004.34
2021-08-27 20:47:00,,0824.4,4.99,0.00,28.9,27.6,00.0,37.9,30.8,19.9,0002.0,0010.41,0004.84,0004.32
2021-08-27 20:48:00,,0824.4,5.01,0.00,29.0,27.9,00.0,37.9,30.9,20.0,0001.7,0010.43,0004.82,0004.31
2021-08-27 20:49:00,,0824.5,5.00,0.00,29.1,28.2,00.0,38.0,31.0,20.4,0001.1,0010.49,0004.83,0004.31
2021-08-27 20:50:00,,0824.4,4.99,0.00,29.1,28.1,00.0,38.0,31.0,19.9,0001.3,0010.61,0004.84,0004.30
2021-08-27 20:51:00,,0824.4,5.01,0.00,29.1,26.5,00.0,38.0,30.6,19.5,0001.2,0009.99,0004.80,0004.29
2021-08-27 20:52:00,,0824.4,5.00,0.00,28.9,25.7,00.0,38.0,30.3,19.8,0001.0,0009.74,0004.77,0004.29
2021-08-27 20:53:00,,0824.5,5.01,0.00,28.9,26.1,00.0,38.0,30.4,20.1,0001.4,0010.08,0004.79,0004.30
2021-08-27 20:54:00,,0824.4,5.00,0.00,28.9,26.5,00.0,37.9,30.5,20.0,0001.4,0010.05,0004.73,0004.28
2021-08-27 20:55:00,,0824.5,4.99,0.00,28.9,26.9,00.0,37.9,30.6,19.9,0001.0,0009.75,0004.75,0004.27
2021-08-27 20:56:00,,0824.4,5.01,0.00,28.9,27.3,00.0,37.9,30.8,20.3,0000.8,0009.09,0004.69,0004.25
2021-08-27 20:57:00,,0824.4,4.98,0.00,29.0,27.7,00.0,37.9,30.9,20.8,0000.9,0009.07,0004.70,0004.26
2021-08-27 20:58:00,,0824.4,5.01,0.00,29.0,28.0,00.0,38.0,31.0,20.0,0001.1,0009.20,0004.73,0004.26
2021-08-27 20:59:00,,0824.4,5.00,0.00,29.1,28.3,00.0,38.0,31.1,19.9,0001.5,0009.98,0004.73,0004.26
